Powrót do katalogu

STARLINK-5078

AktywnyŁącznośćVLEO
NORAD 54857·PAYLOAD·🇺🇸 United States

Wystrzelony Dec 28, 2022 z Cape Canaveral Space Force Station

Loading…

Następne Przeloty (najbliższe 24 godziny)

TLE

ŚwieżeSource: CelesTrak SupGP

Epoka: Sep 14, 2026, 13:10 UTC

1 54857C 22177AP  26257.54909722  .00028485  00000+0  10320-2 0  2579
2 54857  43.0000 134.9265 0001559 266.2581 147.0294 15.27556505    17

Śledź STARLINK-5078 w czasie rzeczywistym z AllMySat

Download on the App Store